Weather History for El Dorado, AR

Change the Weather History Date:

Wednesday, February 19, 2014

  Actual Average Record
Temperature  
Mean Temperature 64 °F 49 °F  
Max Temperature 70 °F 60 °F 84 °F (1986)
Min Temperature 58 °F 37 °F 14 °F (1978)
Degree Days  
Heating Degree Days 1 16  
Month to date heating degree days 431 350  
Since 1 July heating degree days 2447 2093  
Cooling Degree Days 0 0  
Month to date cooling degree days 0 0  
Year to date cooling degree days 0 2  
Growing Degree Days 14 (Base 50)    
Moisture  
Dew Point 60 °F    
Average Humidity 87    
Maximum Humidity 100    
Minimum Humidity 73    
Precipitation  
Precipitation 0.00 in 0.17 in 1.37 in (1991)
Month to date precipitation 2.32 3.22  
Year to date precipitation 3.48 7.52  
Snow  
Snow 0.00 in - - ()
Month to date snowfall 1.1  
Since 1 July snowfall 1.1  
Snow Depth 0.00 in    
Sea Level Pressure  
Sea Level Pressure 29.93 in    
Wind  
Wind Speed 7 mph (SSE)    
Max Wind Speed 16 mph    
Max Gust Speed 22 mph    
Visibility 9 miles    
Events      
T = Trace of Precipitation, MM = Missing Value Source: NWS Daily Summary

Daily Weather History Graph

Daily Weather History Graph

Search for Another Location

Airport:

Trip Planner

Search our weather history database for the weather conditions in past years. The results will help you decide how hot, cold, wet, or windy it might be!

Date:

Astronomy

Feb. 19, 2014 Rise Set
Actual Time 6:50 AM CST 5:59 PM CST
Civil Twilight 6:25 AM CST 6:24 PM CST
Nautical Twilight 5:56 AM CST 6:53 PM CST
Astronomical Twilight 5:27 AM CST 7:22 PM CST
Moon 10:36 PM CST (2/19) 9:12 AM CST (2/19)
Length of Visible Light 11h 59m
Length of Day
11h 09m
Waning Gibbous, 79% of the Moon is Illuminated
Feb 19
Waning Gibbous
Feb 22
Last Quarter
Mar 1
New
Mar 8
First Quarter
Mar 16
Full

Hourly Weather History & Observations

Time (CST) Temp. Dew Point Humidity Pressure Visibility Wind Dir Wind Speed Gust Speed Precip Events Conditions
12:53 AM 60.1 °F 59.0 °F 96% 29.96 in 7.0 mi SSE 4.6 mph - N/A   Partly Cloudy
1:53 AM 60.1 °F 59.0 °F 96% 29.96 in 6.0 mi South 4.6 mph - N/A   Clear
2:40 AM 59.0 °F 59.0 °F 100% 29.97 in 6.0 mi SSE 5.8 mph - N/A   Mostly Cloudy
2:49 AM 59.0 °F 59.0 °F 100% 29.97 in 6.0 mi SSE 5.8 mph - N/A   Mostly Cloudy
2:53 AM 59.0 °F 59.0 °F 100% 29.96 in 6.0 mi SSE 5.8 mph - N/A   Mostly Cloudy
3:53 AM 61.0 °F 60.1 °F 97% 29.96 in 8.0 mi South 8.1 mph - N/A   Overcast
4:53 AM 61.0 °F 60.1 °F 97% 29.98 in 9.0 mi South 4.6 mph - N/A   Overcast
5:53 AM 61.0 °F 60.1 °F 97% 29.97 in 10.0 mi South 6.9 mph - N/A   Overcast
6:18 AM 62.1 °F 60.1 °F 93% 29.98 in 10.0 mi South 6.9 mph - N/A   Overcast
6:53 AM 60.1 °F 59.0 °F 96% 29.99 in 10.0 mi South 4.6 mph - N/A   Mostly Cloudy
7:00 AM 60.1 °F 59.0 °F 96% 29.99 in 9.0 mi South 3.5 mph - N/A   Partly Cloudy
7:53 AM 61.0 °F 60.1 °F 97% 30.00 in 8.0 mi South 6.9 mph - N/A   Mostly Cloudy
8:27 AM 63.0 °F 60.1 °F 90% 30.00 in 10.0 mi South 6.9 mph - N/A   Scattered Clouds
8:53 AM 64.0 °F 60.1 °F 87% 30.00 in 10.0 mi South 5.8 mph - N/A   Scattered Clouds
9:07 AM 64.0 °F 60.1 °F 87% 30.01 in 10.0 mi SSW 9.2 mph - N/A   Mostly Cloudy
9:53 AM 64.9 °F 60.1 °F 84% 30.01 in 10.0 mi South 6.9 mph - N/A   Overcast
10:53 AM 64.9 °F 60.1 °F 84% 30.00 in 10.0 mi South 6.9 mph - N/A   Overcast
11:53 AM 66.0 °F 60.1 °F 81% 29.98 in 10.0 mi South 5.8 mph - N/A   Overcast
12:53 PM 66.0 °F 61.0 °F 84% 29.95 in 10.0 mi Calm Calm - N/A   Overcast
1:53 PM 64.9 °F 61.0 °F 87% 29.92 in 8.0 mi SE 6.9 mph - N/A   Overcast
2:09 PM 66.9 °F 61.0 °F 81% 29.91 in 10.0 mi SE 9.2 mph - N/A   Overcast
2:53 PM 66.9 °F 61.0 °F 81% 29.89 in 10.0 mi SE 6.9 mph - N/A   Overcast
3:36 PM 69.1 °F 61.0 °F 75% 29.88 in 10.0 mi SSE 8.1 mph - N/A   Overcast
3:53 PM 69.1 °F 61.0 °F 75% 29.87 in 10.0 mi SSE 5.8 mph - N/A   Overcast
4:53 PM 69.1 °F 61.0 °F 75% 29.86 in 10.0 mi SE 6.9 mph - N/A   Clear
5:53 PM 64.9 °F 60.1 °F 84% 29.83 in 10.0 mi ESE 5.8 mph - N/A   Partly Cloudy
6:53 PM 63.0 °F 59.0 °F 87% 29.83 in 10.0 mi ESE 5.8 mph - N/A   Clear
7:53 PM 63.0 °F 59.0 °F 87% 29.81 in 10.0 mi SE 5.8 mph - N/A   Clear
8:53 PM 63.0 °F 59.0 °F 87% 29.81 in 10.0 mi SSE 6.9 mph - N/A   Clear
9:53 PM 64.9 °F 59.0 °F 81% 29.81 in 10.0 mi SSE 10.4 mph - N/A   Clear
10:53 PM 64.9 °F 60.1 °F 84% 29.79 in 10.0 mi South 12.7 mph - N/A   Clear
11:53 PM 64.9 °F 59.0 °F 81% 29.78 in 10.0 mi SSE 13.8 mph - N/A   Mostly Cloudy